User: anonymous   Login
Location: Newark
(45.2111°N, 1.9889°E)
Time: 23:48:19
(UTC+00:00)
Language:

Envisat - Orbit

View from above orbital plane
View from above orbital plane
View from above satellite
View from above satellite

Ground track
Ground track

The orbit data is extracted from the following two-line orbital elements,

1 27386U 02009A   20275.48466251  .00000025  00000-0  21770-4 0  9997
2 27386  98.1394 276.9692 0001211  87.7167  65.3791 14.37993656973850
Epoch (UTC): 01 October 2020 11:37:54
Eccentricity: 0.0001211
inclination: 98.1394°
perigee height: 764 km
apogee height: 766 km
right ascension of ascending node: 276.9692°
argument of perigee: 87.7167°
revolutions per day: 14.37993656
mean anomaly at epoch: 65.3791°
orbit number at epoch: 97385

The dashed part of the orbit path shows where the satellite is in the earth's shadow,  

DLR